Weather History for Watertown, WI

Change the Weather History Date:

Tuesday, February 5, 2013

  Actual Average Record
Temperature  
Mean Temperature 12 °F -  
Max Temperature 27 °F 25 °F 50 °F (1946)
Min Temperature -4 °F 8 °F -18 °F (1979)
Degree Days  
Heating Degree Days 54    
Moisture  
Dew Point 12 °F    
Average Humidity 81    
Maximum Humidity 89    
Minimum Humidity 71    
Precipitation  
Precipitation 0.01 in - - ()
Sea Level Pressure  
Sea Level Pressure 29.87 in    
Wind  
Wind Speed 4 mph (West)    
Max Wind Speed 14 mph    
Max Gust Speed 18 mph    
Visibility 8 miles    
Events Snow    
Averages and records for this station are not official NWS values.
T = Trace of Precipitation, MM = Missing Value Source: NWS Daily Summary

Daily Weather History Graph

Daily Weather History Graph

Search for Another Location

Airport:

Trip Planner

Search our weather history database for the weather conditions in past years. The results will help you decide how hot, cold, wet, or windy it might be!

Date:

Astronomy

Feb. 05, 2013 Rise Set
Actual Time 7:05 AM CST 5:12 PM CST
Civil Twilight 6:35 AM CST 5:42 PM CST
Nautical Twilight 6:01 AM CST 6:16 PM CST
Astronomical Twilight 5:28 AM CST 6:49 PM CST
Moon 2:50 AM CST (2/5) 12:27 PM CST (2/5)
Length of Visible Light 11h 07m
Length of Day
10h 07m
Waning Crescent, 26% of the Moon is Illuminated
Feb 5
Waning Crescent
Feb 10
New
Feb 17
First Quarter
Feb 25
Full
Mar 4
Last Quarter

Hourly Weather History & Observations

Time (CST) Temp. Windchill Dew Point Humidity Pressure Visibility Wind Dir Wind Speed Gust Speed Precip Events Conditions
12:15 AM 2.7 °F - -1.1 °F 84% 29.91 in 10.0 mi Calm Calm - N/A   Clear
12:35 AM -1.1 °F - -4.4 °F 86% 29.90 in 10.0 mi Calm Calm - N/A   Clear
12:55 AM 0.7 °F - -3.1 °F 84% 29.89 in 10.0 mi Calm Calm - N/A   Clear
1:15 AM -0.0 °F - -4.0 °F 83% 29.88 in 10.0 mi Calm Calm - N/A   Clear
1:35 AM -0.0 °F - -3.8 °F 84% 29.88 in 10.0 mi Calm Calm - N/A   Clear
1:55 AM -4.2 °F - -7.4 °F 86% 29.87 in 10.0 mi Calm Calm - N/A   Clear
2:15 AM -2.0 °F - -4.9 °F 88% 29.87 in 10.0 mi Calm Calm - N/A   Clear
2:35 AM -2.4 °F - -5.1 °F 88% 29.86 in 10.0 mi Calm Calm - N/A   Clear
2:55 AM -3.1 °F - -5.6 °F 89% 29.86 in 10.0 mi Calm Calm - N/A   Clear
3:15 AM 0.1 °F - -3.3 °F 85% 29.86 in 10.0 mi Calm Calm - N/A   Scattered Clouds
3:35 AM 1.2 °F - -2.2 °F 86% 29.86 in 10.0 mi Calm Calm - N/A   Mostly Cloudy
3:55 AM 3.6 °F - -0.6 °F 83% 29.86 in 10.0 mi Calm Calm - N/A   Mostly Cloudy
4:15 AM 4.1 °F - -0.2 °F 82% 29.84 in 10.0 mi Calm Calm - N/A   Overcast
4:35 AM 6.8 °F -0.1 °F 1.4 °F 79% 29.85 in 10.0 mi SSW 3.5 mph - N/A   Overcast
4:55 AM 7.7 °F 1.0 °F 1.6 °F 76% 29.84 in 10.0 mi South 3.5 mph - N/A   Overcast
5:15 AM 8.4 °F 1.8 °F 2.1 °F 76% 29.83 in 10.0 mi South 3.5 mph - N/A   Overcast
5:35 AM 8.6 °F -2.6 °F 3.9 °F 81% 29.82 in 2.0 mi South 6.9 mph - N/A Snow Light Snow
6:15 AM 9.5 °F -4.4 °F 6.4 °F 87% 29.78 in 4.0 mi South 10.4 mph - N/A Snow Light Snow
6:35 AM 10.4 °F -0.4 °F 6.8 °F 85% 29.79 in 10.0 mi South 6.9 mph - N/A   Overcast
6:55 AM 11.3 °F 0.7 °F 7.7 °F 85% 29.79 in 10.0 mi South 6.9 mph - N/A   Overcast
7:15 AM 11.8 °F 2.5 °F 8.2 °F 85% 29.78 in 10.0 mi South 5.8 mph - N/A   Overcast
7:35 AM 13.1 °F 2.8 °F 9.5 °F 86% 29.78 in 10.0 mi SSW 6.9 mph - N/A   Overcast
7:55 AM 14.0 °F 2.9 °F 10.6 °F 86% 29.78 in 10.0 mi SSW 8.1 mph - N/A   Overcast
8:15 AM 15.3 °F 2.0 °F 11.8 °F 86% 29.77 in 10.0 mi SSW 11.5 mph 16.1 mph N/A   Overcast
8:35 AM 16.2 °F 1.9 °F 12.7 °F 86% 29.76 in 10.0 mi SSW 13.8 mph - N/A   Overcast
8:55 AM 16.7 °F 4.5 °F 13.1 °F 86% 29.77 in 10.0 mi SSW 10.4 mph 18.4 mph N/A   Overcast
9:15 AM 17.4 °F 5.4 °F 13.8 °F 86% 29.76 in 10.0 mi SW 10.4 mph - N/A   Overcast
9:55 AM 18.5 °F 6.8 °F 14.7 °F 85% 29.76 in 2.5 mi SW 10.4 mph 16.1 mph N/A Snow Light Snow
10:15 AM 19.0 °F 5.6 °F 15.8 °F 87% 29.75 in 1.0 mi SW 13.8 mph 18.4 mph N/A Snow Light Snow
10:55 AM 19.4 °F 9.5 °F 16.7 °F 89% 29.77 in 0.5 mi SW 8.1 mph - 0.01 in Snow Snow
11:15 AM 20.3 °F 10.6 °F 17.2 °F 88% 29.77 in 1.0 mi SW 8.1 mph - N/A Snow Light Snow
11:35 AM 21.0 °F 11.4 °F 17.4 °F 86% 29.76 in 1.8 mi SW 8.1 mph - N/A Snow Light Snow
11:55 AM 21.7 °F 12.3 °F 18.0 °F 85% 29.76 in 2.0 mi WSW 8.1 mph - N/A Snow Light Snow
12:15 PM 22.3 °F 12.2 °F 18.3 °F 85% 29.76 in 4.0 mi SW 9.2 mph - N/A   Overcast
12:55 PM 23.5 °F 12.4 °F 18.5 °F 81% 29.75 in 10.0 mi WSW 11.5 mph - N/A   Overcast
1:15 PM 23.9 °F 14.2 °F 18.5 °F 80% 29.76 in 7.0 mi WSW 9.2 mph - N/A   Overcast
1:35 PM 24.4 °F 15.6 °F 19.2 °F 81% 29.77 in 7.0 mi West 8.1 mph - N/A   Overcast
1:55 PM 24.6 °F 16.7 °F 19.4 °F 81% 29.77 in 7.0 mi WSW 6.9 mph - N/A   Overcast
2:15 PM 25.2 °F 17.3 °F 19.9 °F 81% 29.78 in 7.0 mi West 6.9 mph - N/A   Overcast
2:35 PM 25.7 °F 17.1 °F 20.3 °F 80% 29.78 in 7.0 mi West 8.1 mph - N/A   Overcast
2:55 PM 26.1 °F 17.6 °F 20.7 °F 80% 29.80 in 7.0 mi West 8.1 mph - N/A   Overcast
3:15 PM 26.2 °F 17.8 °F 20.8 °F 80% 29.81 in 7.0 mi West 8.1 mph - N/A   Overcast
3:35 PM 26.2 °F 18.6 °F 21.2 °F 81% 29.82 in 7.0 mi West 6.9 mph - N/A   Overcast
3:55 PM 26.4 °F 20.9 °F 21.2 °F 81% 29.83 in 7.0 mi West 4.6 mph - N/A   Overcast
4:15 PM 26.4 °F 19.8 °F 21.6 °F 82% 29.84 in 7.0 mi West 5.8 mph - N/A   Overcast
5:15 PM 27.5 °F 18.6 °F 21.7 °F 79% 29.87 in 10.0 mi NW 9.2 mph - N/A   Overcast
5:35 PM 27.5 °F 18.6 °F 21.6 °F 78% 29.89 in 10.0 mi NW 9.2 mph - N/A   Overcast
5:55 PM 27.5 °F 19.3 °F 21.2 °F 77% 29.90 in 10.0 mi NW 8.1 mph - N/A   Overcast
6:15 PM 27.1 °F 18.2 °F 20.5 °F 76% 29.92 in 10.0 mi NW 9.2 mph - N/A   Overcast
6:35 PM 27.1 °F 18.9 °F 20.5 °F 76% 29.93 in 10.0 mi NW 8.1 mph - N/A   Overcast
6:55 PM 26.8 °F 16.5 °F 20.3 °F 77% 29.94 in 10.0 mi NW 11.5 mph 16.1 mph N/A   Overcast
7:15 PM 26.4 °F 15.5 °F 19.8 °F 76% 29.95 in 10.0 mi NNW 12.7 mph 16.1 mph N/A   Overcast
7:35 PM 25.7 °F 17.1 °F 18.9 °F 75% 29.96 in 10.0 mi NNW 8.1 mph - N/A   Overcast
7:55 PM 25.5 °F 14.9 °F 18.0 °F 73% 29.98 in 10.0 mi NW 11.5 mph - N/A   Overcast
8:15 PM 24.4 °F 15.6 °F 18.1 °F 77% 29.99 in 10.0 mi NNW 8.1 mph - N/A   Overcast
8:35 PM 23.9 °F 12.9 °F 17.4 °F 76% 30.00 in 10.0 mi NNW 11.5 mph - N/A   Overcast
8:55 PM 23.5 °F 15.4 °F 16.7 °F 75% 30.00 in 10.0 mi North 6.9 mph - N/A   Overcast
9:15 PM 23.0 °F 13.1 °F 16.2 °F 75% 30.01 in 10.0 mi NNW 9.2 mph - N/A   Overcast
9:35 PM 22.6 °F 12.6 °F 14.5 °F 71% 30.03 in 10.0 mi NW 9.2 mph 17.3 mph N/A   Overcast
9:55 PM 22.1 °F 12.8 °F 14.7 °F 73% 30.03 in 10.0 mi NNW 8.1 mph - N/A   Overcast
10:15 PM 22.1 °F 14.7 °F 14.5 °F 73% 30.03 in 10.0 mi North 5.8 mph - N/A   Overcast
10:35 PM 21.7 °F 14.3 °F 14.0 °F 72% 30.04 in 10.0 mi NNW 5.8 mph - N/A   Overcast
10:55 PM 21.6 °F 16.8 °F 13.5 °F 71% 30.05 in 10.0 mi NNW 3.5 mph - N/A   Overcast
11:15 PM 20.7 °F - 13.3 °F 73% 30.06 in 10.0 mi Calm Calm - N/A   Overcast
11:35 PM 19.4 °F 12.8 °F 12.7 °F 75% 30.07 in 10.0 mi WNW 4.6 mph - N/A   Scattered Clouds
11:55 PM 18.5 °F - 12.0 °F 76% 30.08 in 10.0 mi Calm Calm - N/A   Clear